AirNav   Air Wisconsin pilot careers
 
 976 users online  

2I3 Rough River State Park Airport
Falls of Rough, Kentucky, USA

GOING TO FALLS OF ROUGH?


FAA INFORMATION EFFECTIVE 28 FEBRUARY 2019

Location

FAA Identifier: 2I3
Lat/Long: 37-36-35.3000N / 086-30-25.8000W
37-36.588333N / 086-30.430000W
37.6098056 / -86.5071667
(estimated)
Elevation: 577 ft. / 175.9 m (surveyed)
Variation: 01W (1985)
From city: 3 miles NE of FALLS-OF-ROUGH, KY
Time zone: UTC -6 (UTC -5 during Daylight Saving Time)
Zip code: 40119

Airport Operations

Airport use: Open to the public
Activation date: 05/1963
Control tower: no
ARTCC: INDIANAPOLIS CENTER
FSS: LOUISVILLE FLIGHT SERVICE STATION
NOTAMs facility: LOU (NOTAM-D service available)
Attendance: UNATNDD
Wind indicator: lighted
Segmented circle: yes
Lights: ACTVT MIRL RY 2/20; REIL RY 2 & 20 - CTAF. PAPI RY 2 & 20 OPER CONTINUOUSLY.
Beacon: white-green (lighted land airport)
Operates sunset to sunrise.

Airport Communications

CTAF/UNICOM: 122.8
WX AWOS-3PT at JQD (19 nm SW): 132.1 (270-298-7936)

Nearby radio navigation aids

VOR radial/distance  VOR name  Freq  Var
MYSr217/(21.1)MYSTIC VOR108.2001W
FTKr236/31.0FORT KNOX VOR/DME109.6001W
OWBr108/32.3OWENSBORO VOR/DME108.6004W
CCTr070/38.5CENTRAL CITY VORTAC109.8001W
EWOr267/39.5NEW HOPE VOR/DME110.8001E

 
NDB name  Hdg/Dist  Freq  Var  ID
GODMAN233/32.739603WGOI --. --- ..

Airport Services

Parking: tiedowns
Airframe service: NONE
Powerplant service: NONE
Bottled oxygen: NONE
Bulk oxygen: NONE

Runway Information

Runway 2/20

Dimensions: 3200 x 75 ft. / 975 x 23 m
Surface: asphalt, in excellent condition
Weight bearing capacity: 
Single wheel: 8.0
Runway edge lights: medium intensity
RUNWAY 2  RUNWAY 20
Latitude: 37-36.336833N37-36.841000N
Longitude: 086-30.527167W086-30.332667W
Gradient: 0.1%0.1%
Traffic pattern: leftleft
Markings: basic, in good conditionbasic, in good condition
Visual slope indicator: 2-light PAPI on left (4.00 degrees glide path)4-light PAPI on left (5.00 degrees glide path)
Runway end identifier lights: yesyes
Obstructions: 21 ft. trees, 616 ft. from runway, 60 ft. right of centerline, 19:1 slope to clear271 ft. tree, 4744 ft. from runway, 566 ft. left of centerline, 16:1 slope to clear

Airport Ownership and Management from official FAA records

Ownership: Publicly-owned
Owner: KY DEPT OF PARKS
2 HUDSON HOLLOW UNIT 1
FRANKFORT, KY 40601
Phone (502) 892-3367
Manager: MICHAEL RICKS, PARK MANAGER
450 LODGE ROAD
FALLS OF ROUGH, KY 40119
Phone 270-257-2311

Airport Operational Statistics

Aircraft operations: avg 25/day *
78% transient general aviation
13% local general aviation
7% military
2% air taxi
* for 12-month period ending 21 November 2016

Additional Remarks

TRANSPORTATION TO PARK LODGE AVAIL 270-257-2311.

Instrument Procedures

There are no published instrument procedures at 2I3.

Some nearby airports with instrument procedures:

KJQD - Ohio County Airport (19 nm SW)
KTEL - Perry County Municipal Airport (26 nm N)
KY8 - Hancock County Airport-Ron Lewis Field (26 nm NW)
KEKX - Addington Field Airport (28 nm E)
KFTK - Godman Army Airfield (31 nm NE)
 
Loc | Ops | Rwys | IFR | FBO | Links
Com | Nav | Svcs | Stats | Notes
Area around 2I3 (Rough River State Park Airport)
 
Road maps at: MapQuest Bing Google
 
Aerial photo
WARNING: Photo may not be current or correct
Aerial photo of 2I3 (Rough River State Park Airport)
Taken in December 2006

Do you have a better or more recent aerial photo of Rough River State Park Airport that you would like to share? If so, please send us your photo.

 
Sectional chart

 
Airport distance calculator
Flying to Rough River State Park Airport? Find the distance to fly.

From to 2I3

Sunrise and sunset
Times for 18-Mar-2019
 Local
(UTC-5)
 Zulu
(UTC)
Morning civil twilight06:2811:28
Sunrise06:5411:54
Sunset18:5523:55
Evening civil twilight19:2100:21

Current date and time
Zulu (UTC)  19-Mar-2019 00:45:54
Local (UTC-5)  18-Mar-2019 19:45:54
 
METAR
KKY8 
26nm NW 
190035Z AUTO 00000KT 10SM CLR 06/M05 A3040 RMK A01
KFTK 
30nm NE 
182356Z AUTO 35003KT 10SM OVC075 07/M07 A3037 RMK AO2 SLP293 T00731072 10104 20073 53009 $
KEKX 
31nm E 
190035Z AUTO 00000KT 10SM BKN075 06/M06 A3038 RMK AO2 T00621064
KOWB 
32nm W 
182356Z 32004KT 10SM SCT065 08/M04 A3040 RMK AO2 SLP308 T00831039 10111 20083 53008
KM21 
39nm SW 
190035Z AUTO 00000KT 10SM CLR 06/M04 A3040 RMK AO2 T00561042
KBWG 
39nm S 
182353Z AUTO 05004KT 10SM CLR 08/M07 A3038 RMK AO2 SLP291 T00781067 10117 20078 53008
KGLW 
44nm SE 
190035Z AUTO 00000KT 10SM CLR 05/M06 A3038 RMK AO2 T00531062
KHNB 
44nm NW 
182356Z AUTO 33004KT 10SM CLR 07/M04 A3039 RMK AO2 SLP296 T00721044 10100 20072 53007
K2I0 
45nm W 
190035Z AUTO 06004KT 10SM SCT065 08/M02 A3040 RMK AO2 T00771024
KI19 
46nm NW 
190035Z AUTO 00000KT 10SM CLR 03/M07 A3038 RMK AO2 T00321070
TAF
KFTK 
30nm NE 
181700Z 1817/1923 33009KT 9999 SCT060 QNH3033INS WND 31006KT AFT 1822 BECMG 1912/1913 VRB06KT 9999 FEW060 QNH3031INS TX11/1821Z TNM01/1911Z
KOWB 
32nm W 
181720Z 1818/1918 34004KT P6SM FEW060 FM190000 VRB02KT P6SM SCT250
NOTAMs
Click for the latest NOTAMs
NOTAMs are issued by the DoD/FAA and will open in a separate window not controlled by AirNav.

 

 
 

Would you like to see your business listed on this page?

 If your business provides an interesting product or service to pilots, flight crews, aircraft, or users of the Rough River State Park Airport, you should consider listing it here.  To start the listing process, click on the button below
 
Add a business
 

Other Pages about Rough River State Park Airport

Update a link
 
Copyright © AirNav, LLC. All rights reserved. Privacy Policy  Contact